Home > Weather > Wodonga > Past weeks

Flag for Australia Past Weather in Wodonga, Victoria, Australia — Yesterday and Last 2 Weeks

Now
45 °F

Overcast.


Feels Like: 45 °F
Forecast: 33 / 51 °F
Wind: No wind

Location: Albury Aeroport Aws

Current Time: Jun 28, 2016 at 12:59:25 AM

Latest Report: Jun 28, 2016 at 12:00 AM


Visibility: N/A

Pressure: 30.21 "Hg

Humidity: 94%

Dew Point: 43 °F

Location of WodongaLocation

Past Weather in Wodonga — Graph

°F

Wodonga Temperature Yesterday

Maximum temperature yesterday: 50 °F (at 3:00 PM)
Minimum temperature yesterday: 36 °F (at 8:00 AM)
Average temperature yesterday: 43 °F

High & Low Weather Summary for the Past Weeks

 TemperatureHumidityPressure
High62 °F (Jun 18, 2:00 PM)100% (Jun 15, 5:00 AM)30.71 "Hg (Jun 15, 5:00 AM)
Low31 °F (Jun 26, 3:00 AM)58% (Jun 14, 3:00 PM)29.44 "Hg (Jun 20, 2:00 PM)
Average47 °F89%30.05 "Hg
* Reported Jun 12 11:00 PM — Jun 27 11:00 PM, Wodonga, Weather by CustomWeather, © 2016

Note: Actual official high and low records may vary slightly from our data, if they occured in-between our weather recording intervals... More about our weather records

Advertising

Wodonga Weather History for the Previous 24 Hours

Scroll right to see more
 ConditionsComfort  
Time TempWeatherWind HumidityBarometerVisibility
11:00 PM
Mon, Jun 27
45 °FCool.5 mph94%30.21 "HgN/A
9:00 PM44 °FOvercast.No wind89%30.18 "HgN/A
8:00 PM46 °FCool.3 mph84%30.17 "HgN/A
6:00 PM47 °FOvercast.5 mph79%30.14 "HgN/A
5:00 PM48 °FCool.8 mph76%30.12 "HgN/A
3:00 PM50 °FOvercast.13 mph68%30.08 "HgN/A
2:00 PM49 °FCool.10 mph72%30.07 "HgN/A
12:00 PM46 °FOvercast.10 mph77%30.09 "HgN/A
11:00 AM45 °FCool.7 mph91%30.11 "HgN/A
9:00 AM36 °FLow clouds.No wind100%30.11 "Hg0 mi
8:00 AM36 °FChilly.6 mph100%30.10 "HgN/A
6:00 AM38 °FLow clouds.5 mph100%30.07 "Hg0 mi
5:00 AM37 °FChilly.No wind99%30.05 "HgN/A
3:00 AM39 °FOvercast.No wind100%30.05 "HgN/A
2:00 AM39 °FChilly.No wind99%30.06 "HgN/A
12:00 AM39 °FOvercast.No wind99%30.06 "Hg6 mi
Weather by CustomWeather, © 2016

See weather overviewHow to use our weather pages